Total_Precipitation_Accumulation
0.90 1.18 1.77 1.93 1.82 1.71 1.71 1.92 2.06 1.96 1.92 1.86 1.81 1.86 2.01 2.01 2.09 2.07 1.97 2.03 2.11 2.16 2.02 1.78 1.68 1.61 1.62 1.67 1.62 1.50 1.38 1.33 1.50 1.65 1.84 2.02 2.25 2.44 2.60 2.77 2.69 2.10 1.99
0.58 0.85 1.46 1.69 1.61 1.50 1.55 1.65 1.72 1.67 1.66 1.68 1.67 1.72 1.67 1.66 1.71 1.76 1.81 1.92 1.98 2.00 1.82 1.69 1.55 1.40 1.39 1.35 1.37 1.25 1.23 1.48 1.80 2.06 2.42 2.53 2.64 2.67 2.67 2.76 2.77 2.16 1.99
0.40 0.59 1.15 1.46 1.44 1.42 1.43 1.39 1.44 1.45 1.43 1.53 1.56 1.62 1.53 1.48 1.61 1.69 1.77 1.77 1.94 1.92 1.69 1.58 1.40 1.27 1.26 1.22 1.15 1.12 1.27 1.60 2.15 2.60 2.78 2.52 2.22 2.51 2.58 2.67 2.56 2.01 1.88
0.30 0.44 0.78 1.16 1.24 1.22 1.21 1.25 1.26 1.21 1.16 1.29 1.39 1.46 1.50 1.47 1.61 1.71 1.71 1.72 1.92 1.81 1.66 1.51 1.39 1.20 1.09 1.07 1.09 1.19 1.39 1.66 2.14 2.64 2.52 2.22 1.92 2.10 2.23 2.13 2.06 1.82 1.72
0.28 0.34 0.58 0.90 1.03 1.06 1.05 1.18 1.14 1.01 1.03 1.19 1.34 1.37 1.47 1.52 1.60 1.69 1.65 1.73 1.92 1.91 1.74 1.55 1.39 1.17 1.07 1.02 1.03 1.19 1.42 1.79 2.19 2.30 1.90 2.01 2.16 2.08 1.96 1.86 1.87 1.70 1.46
0.28 0.34 0.51 0.77 0.83 0.87 0.87 1.07 1.06 1.00 1.01 1.14 1.29 1.26 1.31 1.41 1.62 1.73 1.69 1.80 1.86 1.81 1.62 1.47 1.29 1.12 1.00 0.98 1.09 1.21 1.53 1.94 1.97 1.60 1.49 1.66 1.61 1.87 1.78 1.75 1.67 1.47 1.22
0.27 0.36 0.43 0.69 0.77 0.85 0.92 1.05 1.06 0.98 0.94 1.05 1.14 1.11 1.22 1.44 1.64 1.79 1.81 1.87 1.85 1.76 1.49 1.32 1.21 1.09 0.98 0.99 1.11 1.17 1.45 1.83 1.65 1.40 1.37 1.52 1.35 1.54 1.67 1.68 1.65 1.40 1.14
0.27 0.37 0.46 0.65 0.75 0.83 0.92 1.00 1.05 1.00 0.97 1.05 1.18 1.15 1.25 1.49 1.69 1.83 1.93 2.02 1.90 1.74 1.42 1.24 1.08 0.96 0.93 0.99 1.10 1.14 1.33 1.44 1.23 1.13 1.15 1.19 1.18 1.32 1.54 1.46 1.43 1.32 1.10
0.46 0.42 0.45 0.56 0.76 0.87 0.99 1.06 1.08 1.06 1.03 1.15 1.33 1.25 1.33 1.52 1.72 1.82 1.96 2.03 1.88 1.68 1.39 1.18 0.99 0.89 0.92 0.94 1.01 1.08 1.26 1.42 1.21 1.22 1.12 1.03 1.02 1.19 1.46 1.35 1.28 1.29 1.16
0.77 0.59 0.56 0.60 0.80 0.94 0.99 1.05 1.16 1.09 1.07 1.17 1.32 1.36 1.60 1.70 1.76 1.82 2.02 2.04 1.86 1.65 1.35 1.18 1.03 0.93 0.95 0.94 1.03 1.19 1.37 1.33 1.25 1.30 1.17 0.84 0.94 1.24 1.51 1.50 1.47 1.47 1.29
1.10 1.00 0.95 0.84 0.81 0.97 0.99 1.05 1.36 1.37 1.30 1.31 1.39 1.61 1.88 2.18 2.23 2.34 2.34 2.22 2.05 1.81 1.61 1.45 1.31 1.15 1.11 1.05 1.29 1.41 1.30 1.35 1.53 1.45 1.21 0.89 0.99 1.46 1.68 1.72 1.65 1.62 1.54
1.36 1.32 1.41 1.18 0.98 0.98 0.97 1.39 1.94 1.88 1.81 1.82 1.88 2.00 2.38 2.62 2.91 2.58 2.79 2.75 2.63 2.45 2.19 2.08 2.02 1.65 1.28 1.11 1.41 1.57 1.39 1.41 1.57 1.33 1.08 0.99 1.15 1.59 1.83 1.74 1.71 1.67 1.62
1.77 1.58 1.46 1.50 1.44 1.43 1.53 1.64 1.88 2.21 2.27 2.27 2.31 2.34 2.60 2.52 2.65 2.66 2.95 3.28 3.09 2.66 2.31 2.42 2.44 1.93 1.79 1.98 1.98 1.80 1.68 1.53 1.59 1.36 1.24 1.26 1.39 1.76 2.00 1.84 1.82 1.76 1.57
2.40 2.35 2.34 2.18 2.06 2.07 1.95 1.79 1.77 1.92 1.97 2.01 2.12 2.22 2.42 2.73 2.79 2.91 3.17 3.09 2.85 2.66 2.79 2.61 2.72 2.49 2.30 2.14 2.08 2.18 2.11 1.85 1.80 1.75 1.71 1.67 1.73 1.95 2.17 2.07 1.97 1.92 1.78
2.91 3.18 3.70 3.56 2.94 2.62 2.38 2.11 1.74 1.80 1.67 1.56 1.73 2.05 2.21 2.42 2.67 2.82 2.71 2.59 2.23 2.33 2.57 2.64 2.37 2.56 2.53 2.51 2.42 2.39 2.39 2.12 1.95 1.90 1.94 2.13 2.10 2.07 2.27 2.35 2.23 2.17 2.12
3.77 3.81 4.00 4.52 3.89 3.17 2.64 2.31 2.02 1.77 1.79 1.71 1.84 1.84 2.06 2.25 2.33 2.40 2.31 2.28 2.14 2.19 2.34 2.32 2.29 2.59 2.70 2.63 2.29 2.12 2.11 2.12 2.04 1.92 2.06 2.18 2.22 2.04 2.16 2.47 2.62 2.56 2.57
4.34 4.48 4.56 4.88 4.56 4.04 3.44 2.85 2.35 2.12 1.88 1.90 2.00 1.78 1.82 2.00 2.04 2.11 2.13 2.07 2.10 2.00 2.03 2.02 2.08 2.29 2.30 2.27 2.10 1.94 1.94 1.98 2.05 2.05 1.97 2.05 2.13 2.19 2.18 2.34 2.58 2.65 2.82
5.01 5.25 5.28 5.06 5.01 4.65 3.98 3.39 2.97 2.70 2.36 2.09 1.96 1.80 1.63 1.72 1.79 1.89 1.80 1.78 1.77 1.69 1.69 1.90 1.97 2.13 2.27 2.31 2.28 2.04 2.07 2.12 1.98 2.07 2.09 2.05 2.32 2.16 2.42 2.58 2.58 2.55 2.89
6.19 6.62 6.40 5.74 5.30 4.86 4.28 3.76 3.60 3.41 2.97 2.44 2.25 2.07 1.88 1.70 1.66 1.74 1.76 1.79 1.53 1.56 1.60 1.55 1.85 2.02 2.28 2.32 1.97 1.99 1.86 1.87 1.88 1.75 1.99 1.91 2.11 2.25 2.47 2.53 2.63 2.53 2.86
6.53 7.23 7.12 6.46 5.61 4.95 4.60 4.16 3.99 3.66 3.19 2.62 2.38 2.28 2.01 1.87 1.66 1.68 1.58 1.52 1.37 1.52 1.72 1.83 2.22 2.15 2.08 2.08 1.73 1.95 1.79 1.56 1.64 1.75 1.75 1.86 1.98 1.85 2.14 2.47 2.68 2.25 2.61
5.53 6.11 5.98 5.37 4.88 4.35 3.88 3.35 3.28 3.09 2.78 2.49 2.21 1.94 1.90 1.85 1.68 1.74 1.66 1.75 1.49 1.53 1.59 1.59 1.80 1.92 1.83 1.83 2.16 2.26 1.88 1.55 1.60 1.60 1.61 1.86 1.93 1.95 2.28 2.68 2.80 2.71 2.36
4.02 4.28 3.77 3.57 3.57 3.24 2.96 2.89 2.82 2.69 2.39 2.16 2.01 1.95 1.61 1.60 1.59 1.53 1.74 1.65 1.57 1.68 1.66 1.65 1.79 1.89 1.83 1.87 2.09 2.35 2.10 2.10 1.88 1.41 1.65 1.79 1.83 2.05 2.18 2.32 2.63 2.89 2.56
2.82 2.81 2.57 2.51 2.83 2.82 2.77 2.72 2.69 2.68 2.54 2.28 1.96 1.92 1.59 1.43 1.45 1.56 1.59 1.67 1.74 1.47 1.67 1.78 1.71 1.75 1.80 1.75 1.78 2.11 2.14 2.13 1.89 1.50 1.46 1.53 1.73 2.03 2.11 2.24 2.12 2.34 2.52
1.93 2.04 2.28 2.36 2.50 2.43 2.49 2.33 2.14 1.97 1.86 1.78 1.73 1.78 1.77 1.56 1.45 1.40 1.46 1.70 1.81 1.58 1.76 1.44 1.53 1.75 1.83 1.69 1.71 1.63 1.65 1.81 1.94 1.89 1.62 1.49 1.60 1.76 1.90 2.00 2.15 2.34 2.46
1.52 1.77 2.16 2.25 2.29 2.23 2.19 2.21 2.19 2.05 2.04 1.93 1.87 2.03 2.01 1.98 1.78 1.48 1.48 1.69 1.82 1.76 1.79 1.67 1.87 1.68 1.57 1.55 1.60 1.65 1.67 1.62 1.52 1.77 1.85 1.74 1.65 1.49 1.54 1.65 1.77 1.90 1.97
1.38 1.49 1.74 1.89 2.06 2.11 2.15 2.23 2.14 2.10 2.18 2.03 1.91 1.85 1.80 1.85 1.79 1.68 1.67 1.87 1.87 1.81 1.84 1.77 1.80 1.71 1.68 1.68 1.60 1.56 1.79 1.78 1.64 1.75 1.64 1.63 1.61 1.32 1.31 1.42 1.50 1.57 1.69